Regional Weather Roundup
Issued by NWS

Home | Current Version | Previous Version | Graphics & Text | Print | Product List | Glossary On
Versions: 1 2 3 4 5 6 7 8 9 10 11 12 13 14 15 16 17 18 19 20 21 22 23 24 25 26 27 28
000
ASUS45 KTFX 211310
RWRMT
MONTANA REGIONAL WEATHER ROUNDUP
NATIONAL WEATHER SERVICE GREAT FALLS MT
700 AM MDT MON MAY 21 2018

NOTE: "FAIR" INDICATES FEW OR NO CLOUDS BELOW 12000 FEET WITH NO
SIGNIFICANT WEATHER AND/OR OBSTRUCTIONS TO VISIBILITY.

MTZ001>007-043-211400-
WEST OF THE DIVIDE

CITY           SKY/WX    TMP DP  RH WIND       PRES   REMARKS
KALISPELL      CLOUDY    53  46  77 NW3       29.92R
MISSOULA       CLOUDY    53  49  86 CALM      29.95R
BUTTE          CLOUDY    42  41  96 S8        30.00S
MULLAN PASS    LGT RAIN  47  43  86 NW5       30.01S
ANACONDA         N/A     46  43  87 CALM      29.98S
DEER LODGE       N/A     48  48 100 SE3       29.99S
HAMILTON         N/A     52  48  87 MISG      29.96S
RONAN            N/A     52  50  93 E3        29.94R
$$

MTZ008-052>055-211400-
SOUTHWEST MONTANA

CITY           SKY/WX    TMP DP  RH WIND       PRES   REMARKS
BOZEMAN        FAIR      48  46  93 CALM      29.96R
DILLON         CLOUDY    47  44  90 S10       29.97S
ENNIS          MOSUNNY   43  39  87 CALM      30.01S
W YELLOWSTONE  FOG       37  37 100 CALM      30.05S VSB 1/4
$$

MTZ009-010-012-014-046-048-049-054-211400-
EAST SLOPES AND CENTRAL MONTANA

CITY           SKY/WX    TMP DP  RH WIND       PRES   REMARKS
CUT BANK       CLOUDY    51  47  86 W3        29.91R
GREAT FALLS    FAIR      53  47  79 SW7       29.91R
MALMSTROM AFB  PTSUNNY   55  47  73 W3        29.90R
HELENA         FAIR      52  47  83 CALM      29.93S
AUGUSTA        PTSUNNY   52  42  69 NW13      29.92S
BOWMANS CRNR   PTSUNNY   51  42  72 SW5       29.91S
CHOTEAU          N/A     50  45  81 SW5       29.93R
POWER          PTSUNNY   49  44  84 W9        29.89S
RAYNESFORD     FAIR      50  45  83 CALM      29.92R
ULM            PTSUNNY   52  50  92 CALM      29.91R
WHITE SULPHUR    N/A     45  43  93 CALM      29.96R
$$

MTZ011-013-016-021-045-047-050-051-211400-
NORTH CENTRAL MONTANA

CITY           SKY/WX    TMP DP  RH WIND       PRES   REMARKS
HAVRE          FAIR      52  49  89 E3        29.86R
LEWISTOWN      FAIR      49  44  83 E3        29.92R
N BAR RANCH    FAIR      50  45  81 CALM      29.94S
CHINOOK          N/A     54  48  82 CALM      29.86S
DENTON         FAIR      52  48  86 SW6       29.86S
GEYSER         FAIR      55  46  74 SW12      29.90S
GRASS RANGE    FAIR      52  46  80 NW3       29.88R
JUDITH GAP     PTSUNNY   52  47  82 NW3       29.92S
ROY            FAIR      56  49  78 W3        29.88R
STANFORD       FAIR      55  46  73 NW3       29.92R
WINIFRED       FAIR      56  50  80 CALM      29.88S
$$

MTZ017>020-022>027-061-062-211400-
NORTHEAST MONTANA

CITY           SKY/WX    TMP DP  RH WIND       PRES   REMARKS
GLASGOW        FAIR      52  43  71 E13       29.88S
GLENDIVE       FAIR      50  41  71 S7        29.95S
JORDAN           N/A     49  43  80 CALM      29.88
MALTA          SUNNY     50  46  87 E6        29.85S
SIDNEY         FAIR      49  41  74 S5        29.96S
WOLF POINT     FAIR      50  42  74 E7        29.91F
PLENTYWOOD       N/A     52  36  54 SE13      29.94S
POPLAR           N/A     52  41  66 E6        29.93S
$$

MTZ028>42-056>058-211400-
SOUTHCENTRAL AND SOUTHEAST MONTANA

CITY           SKY/WX    TMP DP  RH WIND       PRES   REMARKS
BAKER          FAIR      48  40  73 SE12      29.98R
BILLINGS       PTSUNNY   54  49  83 SW9       29.91R
LIVINGSTON     FAIR      52  46  80 SW5       29.94S
MILES CITY     FAIR      52  42  69 SE8       29.91R
BIG TIMBER     SUNNY     54  48  82 VRB3      29.96R
FORSYTH          N/A     52  46  82 E6        29.89S
HARLOWTON      FAIR      50  48  93 N7        29.92R
LAUREL           N/A     54  50  87 SW6       29.92R
$$

REGIONAL REPORTS...DAKOTAS

CITY           SKY/WX    TMP DP  RH WIND       PRES   REMARKS
WILLISTON      FAIR      55  38  52 S8        29.97S
MINOT          FAIR      50  37  61 SE5       30.01F
DICKINSON      FAIR      46  39  76 S8        29.99R
CROSBY         FAIR      55  36  47 S14       29.96
BISMARCK       FAIR      47  42  83 E5        30.04F
GRAND FORKS    FAIR      54  42  64 S6        30.08S
FARGO          FAIR      55  43  63 CALM      30.07F
BUFFALO SD       N/A     51  40  65 SE9       29.92S
RAPID CITY     FAIR      44  41  89 SE9       29.99F
$$

REGIONAL REPORTS...WYOMING/IDAHO/WASHINGTON

CITY           SKY/WX    TMP DP  RH WIND       PRES   REMARKS
GILLETTE       FAIR      49  41  74 S13       29.96R
SHERIDAN       FAIR      47  44  90 CALM      29.94R
BUFFALO WY     FAIR      50  45  83 CALM      29.96S
CODY           FAIR      56  42  59 SW7       29.97R
YELLOWSTONE LA   N/A     33  32  96 CALM      30.13R
IDAHO FALLS    CLOUDY    46  46 100 N5        29.97S
SALMON         CLOUDY    48  47  96 CALM      29.98R
BOISE          FAIR      54  52  93 CALM      29.92S
SPOKANE        MOCLDY    57  53  86 S3        29.92R
$$

REGIONAL REPORTS...ALBERTA

CITY           SKY/WX    TMP DP  RH WIND       PRES   REMARKS
CALGARY        PTSUNNY   52  36  54 SW3       29.91R
CARDSTON         N/A     46  39  76 NE1         N/A
EDMONTON       SUNNY     54  39  58 W8        29.83R
FORT MCMURRAY  SUNNY     55  45  67 VRB2      29.74S
LETHBRIDGE     PTSUNNY   50  41  71 W7        29.89R
LLOYDMINSTER   MOSUNNY   54  45  71 W7        29.77R
MEDICINE HAT   MOSUNNY   55  45  67 SW14      29.81S
MILK RIVER       N/A     54  46  76 NW8         N/A
PEACE RIVER    MOSUNNY   52  45  76 SW7       29.77S
PINCHER CREEK  MOSUNNY   45  37  76 NW8       29.94
WATERTON GATE    N/A     52  37  58 S8          N/A
$$

REGIONAL REPORTS...SASKATCHEWAN

CITY           SKY/WX    TMP DP  RH WIND       PRES   REMARKS
CORONACH         N/A     48  37  66 SE9         N/A
CYPRESS HILLS    N/A     55  46  71 SW3         N/A
ESTEVAN        MOSUNNY   55  34  44 SE12      29.97F
PRINCE ALBERT  MOSUNNY   61  39  44 S8        29.80S
REGINA         MOSUNNY   52  34  50 SE15      29.91S
ROCKGLEN         N/A     46  37  71 S13         N/A
SASKATOON      MOSUNNY   59  41  51 S14       29.79F
SWIFT CURRENT  SUNNY     59  45  58 SW15G21   29.82S
$$




USA.gov is the U.S. government's official web portal to all federal, state and local government web resources and services.